#timestamp,LO_Frequency,Hit,StdDev 
1630458015.2,286047002.5,N
1630458035.1,286047002.0,N
1630458036.0,286047002.0,N
1630458055.8,286046999.7,N
1630458075.7,286047000.1,N
1630458095.5,286047002.6,N
1630458115.3,286047001.7,N
1630458135.2,286047001.6,N
1630458155.0,286047004.3,Y
1630458155.9,286047004.3,P
1630458175.8,286047000.1,N
1630458195.6,286047002.3,N
1630458215.4,286046999.8,N
1630458235.3,286047000.1,N
1630458255.1,286046999.9,N
1630458256.0,286046999.9,N
1630458275.8,286047001.4,N
1630458295.7,286047001.8,N
1630458315.5,286047001.7,N
1630458335.3,286047002.1,N
1630458355.2,286047002.8,N
1630458375.0,286047002.8,N
1630458375.9,286047002.8,N
1630458395.8,286047002.3,N
1630458415.6,286047002.4,N
1630458435.4,286047001.8,N
1630458455.3,286047002.5,N
1630458475.1,286047002.8,N
1630458495.8,286046999.8,N
1630458515.7,286047000.3,N
1630458535.5,286046998.2,N
1630458555.4,286046998.2,N
1630458575.2,286046998.6,N
1630458595.0,286046998.6,N
1630458595.9,286046998.6,N
1630458615.8,286047000.0,N
1630458635.6,286047000.7,N
1630458655.4,286047002.1,N
1630458675.3,286047001.3,N
1630458695.1,286047001.8,N
1630458715.9,286047001.7,N
1630458735.7,286047002.5,N
1630458755.5,286047002.7,N
1630458775.4,286047002.8,N
1630458795.2,286047002.0,N
1630458815.1,286047002.8,N
1630458816.0,286047002.8,N
1630458835.8,286046999.8,N
1630458855.6,286046999.9,N
1630458875.5,286047000.9,N
1630458895.3,286047000.1,N
1630458915.1,286047002.5,N
1630458935.9,286047001.3,N
1630458955.7,286047001.7,N
1630458975.6,286047001.4,N
1630458995.4,286047001.8,N
1630459015.2,286047001.4,N
1630459035.1,286047001.3,N
1630459036.0,286047001.3,N
1630459055.8,286047002.7,N
1630459075.6,286047002.7,N
1630459095.5,286047000.5,N
1630459115.3,286047001.2,N
1630459135.2,286047001.0,N
1630459155.9,286047000.2,N
1630459175.7,286046998.3,N
1630459195.6,286046999.2,N
1630459215.4,286046999.2,N
1630459235.2,286046998.7,N
1630459255.1,286046998.9,N
1630459256.0,286046998.9,N
1630459275.8,286046996.7,N
1630459295.7,286046999.5,N
1630459315.5,286046999.3,N
1630459335.3,286046999.4,N
1630459355.2,286046997.8,N
1630459375.0,286046996.8,N
1630459375.9,286046996.8,N
1630459395.7,286046996.6,N
1630459415.6,286046996.9,N
1630459435.4,286046999.0,N
1630459455.3,286046996.7,N
1630459475.1,286046997.3,N
1630459476.0,286046997.3,N
1630459495.8,286046997.9,N
1630459515.7,286046997.7,N
1630459535.5,286046997.9,N
1630459555.3,286046997.3,N
1630459575.2,286046996.9,N
1630459595.0,286046997.2,N
1630459595.9,286046997.2,N
1630459615.8,286046996.7,N
1630459635.6,286046997.9,N
1630459655.4,286046997.4,N
1630459675.3,286046997.8,N
1630459695.1,286046997.6,N
1630459715.9,286046994.9,Y
1630459735.7,286046998.8,P
1630459755.5,286046999.0,N
1630459775.4,286046997.2,P
1630459795.2,286046997.3,Y
1630459815.0,286046999.4,P
1630459815.9,286046999.4,N
1630459835.8,286046998.6,N
1630459855.6,286046998.6,N
1630459875.5,286046998.2,Y
1630459895.3,286047002.4,P
1630459915.1,286047002.7,N
1630459935.9,286047002.7,N
1630459955.7,286047002.8,N
1630459975.5,286047000.6,N
1630459995.4,286047000.3,N
1630460015.2,286046998.1,N
1630460035.1,286047000.8,N
1630460036.0,286047000.8,N
1630460055.8,286046998.1,N
1630460075.6,286046998.4,N
1630460095.5,286047001.2,N
1630460115.3,286046998.8,N
1630460135.1,286046998.6,N
1630460155.9,286047001.2,N
1630460175.7,286046998.6,N
1630460195.6,286047000.8,N
1630460215.4,286046998.2,N
1630460235.2,286047001.1,N
1630460255.1,286047000.6,N
1630460275.4,286047000.3,N
1630460295.2,286047000.6,N
1630460315.1,286047000.2,N
1630460316.0,286047000.2,N
1630460335.8,286047000.8,N
1630460355.6,286047001.1,N
1630460375.5,286047001.0,N
1630460395.3,286047000.9,N
1630460415.1,286047000.2,N
1630460435.9,286046998.5,N
1630460455.7,286046999.1,N
1630460475.6,286046999.0,N
1630460495.4,286046999.2,N
1630460515.2,286046998.5,N
1630460535.1,286046998.1,N
1630460536.0,286046998.1,N
1630460555.8,286046998.5,N
1630460575.7,286047000.0,N
1630460595.5,286046999.7,N
1630460615.3,286047002.8,N
1630460635.2,286047001.0,N
1630460655.0,286046999.7,N
1630460655.9,286046999.7,N
1630460675.8,286047001.0,N
1630460695.6,286047000.0,N
1630460715.4,286046998.1,N
1630460735.3,286046998.1,N
1630460755.1,286046998.2,N
1630460775.8,286046998.7,N
1630460795.7,286047001.2,N
1630460815.5,286046998.3,N
1630460835.4,286046998.3,N
1630460855.2,286046998.9,N
1630460875.0,286046999.0,N
1630460875.9,286046999.0,N
1630460895.8,286046999.1,N
1630460915.6,286046996.8,N
1630460935.5,286046997.9,N
1630460955.3,286046995.6,Y
1630460975.1,286046995.9,P
1630460995.9,286046995.6,N
1630461015.7,286046996.0,N
1630461035.5,286046994.0,Y
1630461055.4,286046997.4,P
1630461075.2,286046995.5,P
1630461095.1,286046996.3,P
1630461096.0,286046996.3,Y
1630461115.8,286046997.3,P
1630461135.6,286046996.5,P
1630461155.5,286046996.5,P
1630461175.3,286046999.1,N
1630461195.2,286046996.6,Y
1630461215.9,286046999.7,P
1630461235.7,286047000.1,N
1630461255.6,286047001.6,N
1630461275.4,286047002.6,N
1630461295.2,286047001.9,N
1630461315.1,286047001.8,N
1630461316.0,286047001.8,N
1630461335.8,286047002.4,N
1630461355.8,286047002.4,N
1630461375.6,286047002.7,N
1630461395.4,286047004.0,N
1630461415.3,286047003.9,N
1630461435.1,286047004.1,N
1630461455.8,286047003.9,N
1630461475.7,286047005.6,Y
1630461495.5,286047003.8,P
1630461515.4,286047001.7,N
1630461535.2,286047004.1,P
1630461555.0,286047002.1,N
1630461555.9,286047002.1,N
1630461575.8,286047001.6,N
1630461595.6,286047004.4,Y
